Regional Weather Roundup
Issued by NWS

Home | Current Version | Previous Version | Graphics & Text | Print | Product List | Glossary On
Versions: 1 2 3 4 5 6 7 8 9 10 11 12 13 14 15 16 17 18 19 20 21 22 23 24 25 26 27 28
000
ASUS45 KSLC 191610
RWRUT

UTAH REGIONAL WEATHER ROUNDUP
NATIONAL WEATHER SERVICE SALT LAKE CITY UT
1000 AM MDT THU APR 19 2018

UTZ001>011-023>025-191700-

NORTHERN UTAH

CITY           SKY/WX    TMP DP  RH WIND       PRES   REMARKS
BRIGHAM CITY   CLOUDY    56   9  15 E9G18     29.87F
DUGWAY         PTSUNNY   55  15  20 VRB1      29.85F
HILL AFB       CLOUDY    53  14  21 E9        29.86F
LOGAN          CLOUDY    51  32  48 CALM      29.90F
OGDEN          CLOUDY    50  31  48 NW8       29.86F
SALT LAKE CITY CLOUDY    55  19  24 S10       29.85F
TOOELE VALLEY  CLOUDY    54  27  35 S10       29.86F
WENDOVER       CLOUDY    51  18  27 N13       29.84F
HEBER CITY       N/A     43  18  36 W3        29.92F
WEST JORDAN    CLOUDY    51  27  38 S7        29.88F

$$

UTZ011>015-024>027-191700-

CENTRAL/NORTHEAST UTAH

CITY           SKY/WX    TMP DP  RH WIND       PRES   REMARKS
PROVO AIRPORT  CLOUDY    53  26  35 VRB7      29.87F
MOAB/CANYONLAN PTSUNNY   58   6  12 SE12      29.92F
DELTA          CLOUDY    48  32  53 CALM      29.85F
PRICE          CLOUDY    45   6  20 CALM      29.97S
RICHFIELD      SUNNY     46  10  23 CALM      29.88F
ROOSEVELT      PTSUNNY   46  10  23 CALM      30.03S
VERNAL         PTSUNNY   50  12  21 CALM      29.99F

$$

UTZ013>016-019>022-027-191700-

SOUTHERN UTAH

CITY           SKY/WX    TMP DP  RH WIND       PRES   REMARKS
BRYCE CANYON   PTSUNNY   42   1  18 SE16G23   29.94F
CEDAR CITY     PTSUNNY   54   9  16 S26G35    29.81F
MILFORD        CLOUDY    53  31  42 N5        29.82F
ST GEORGE      CLOUDY    64  12  13 SE15      29.78F
HANKSVILLE     CLOUDY    46   1  15 CALM      29.96F
KANAB          MOSUNNY   54  10  17 CALM      29.91F
BLANDING         N/A     55   8  15 SE21G28   30.10F

$$

REGIONAL REPORTS     COLORADO/ARIZONA

CITY           SKY/WX    TMP DP  RH WIND       PRES   REMARKS
CRAIG, CO      MOSUNNY   51  21  30 NE15      30.03F
GRAND JUNCTION MOSUNNY   55  13  18 SE18      29.96F
RIFLE, CO      PTSUNNY   45  19  35 SW5       30.02F
MONTROSE, CO   SUNNY     56  10  16 VRB5      30.02F
CORTEZ, CO     MOSUNNY   60   5  11 SE21G39   30.06F
COLORADO CITY    N/A     57  10  15 SE15G21   29.88F
PAGE, AZ       CLOUDY    56   6  13 CALM      29.89F
GRAND CANYON   PTSUNNY   52   4  14 S20G25    29.94F
KINGMAN, AZ    PTSUNNY   61  19  19 SW32G43   29.83R
FLAGSTAFF, AZ  PTSUNNY   51   4  14 SW30G44   29.96F

$$

REGIONAL REPORTS    NEVADA/IDAHO/WYOMING

CITY           SKY/WX    TMP DP  RH WIND       PRES   REMARKS
LAS VEGAS, NV  MOSUNNY   60  11  14 S15G30    29.77F
ELY, NY        CLOUDY    47  12  24 SE15G22   29.80F
ELKO, NV       CLOUDY    46  27  47 CALM      29.83F
POCATELLO, ID  CLOUDY    43  29  57 N6        29.93F
BURLEY, ID     CLOUDY    46  26  45 NE9G18    29.89F
FORT BRIDGER,    N/A     40  11  31 NE7       30.03S WCI  35
EVANSTON, WY   CLOUDY    40  13  33 E16       29.97F WCI  31
ROCK SPRINGS,  CLOUDY    40  14  34 NE12      30.03F WCI  33
KEMMERER, WY   PTSUNNY   41  12  30 N15G23    30.02S

$$




USA.gov is the U.S. government's official web portal to all federal, state and local government web resources and services.